Probability
0 0 0 0 0 0 0 0 0 0 0 0 0 0 0 0 0 0 0 0 0 0 0 0 0 0 0 0 0 0 0 0 0 0 0 0 0 0
0 0 0 0 0 0 0 0 0 0 0 0 0 0 0 0 0 0 0 0 0 0 0 0 0 0 0 0 0 0 0 0 0 0 0 0 0 0
0 0 0 0 0 0 0 0 0 0 0 0 0 0 0 0 0 0 0 0 0 0 0 0 0 0 0 0 0 0 0 0 0 0 0 0 0 0
0 0 0 0 0 0 0 0 0 0 0 0 0 0 0 0 0 0 0 0 0 0 0 0 0 0 0 0 0 0 0 0 0 0 0 0 0 0
0 0 0 0 0 0 0 0 0 0 0 0 0 0 0 0 0 0 0 0 0 0 0 0 0 0 0 0 0 0 0 0 0 0 0 0 0 0
0 0 0 0 0 0 0 0 0 0 0 0 0 0 0 0 0 0 0 0 0 0 0 0 0 0 0 0 0 0 0 0 0 0 0 0 0 0
0 0 0 0 0 0 0 0 0 0 0 0 0 0 0 0 0 0 0 0 0 0 0 0 0 0 0 0 0 0 0 0 0 0 0 0 0 0
0 0 0 0 0 0 0 0 0 0 0 0 0 0 0 0 0 0 0 0 0 0 0 0 0 0 0 0 0 0 0 0 0 0 0 0 0 0
0 0 0 0 0 0 0 0 0 0 0 0 0 0 0 0 0 0 0 0 0 0 0 0 0 0 0 0 0 0 0 0 0 0 0 0 0 0
0 0 0 0 0 0 0 0 0 0 0 0 0 0 0 0 0 0 0 0 0 0 0 0 0 0 0 0 0 0 0 0 0 0 0 0 0 0
0 0 0 0 0 0 0 0 0 0 0 0 0 0 0 0 0 0 0 0 0 0 0 0 0 0 0 0 0 0 0 0 0 0 0 0 0 0
0 0 0 0 0 0 0 0 0 0 0 0 0 0 0 0 0 0 0 0 0 0 0 0 0 0 0 0 0 0 0 0 0 0 0 0 0 0
0 0 0 0 0 0 0 0 0 0 0 0 0 0 0 0 0 0 0 0 0 0 0 0 0 0 0 0 0 0 0 0 0 0 0 0 0 0
0 0 0 0 0 0 0 0 0 0 0 0 0 0 0 0 0 0 0 0 0 0 0 0 0 0 0 0 0 0 0 0 0 0 0 0 0 0
0 0 0 0 0 0 0 0 0 0 0 0 0 0 0 0 0 0 0 0 0 0 0 0 0 0 0 0 0 0 0 0 0 0 0 0 0 0
0 0 0 0 0 0 0 0 0 0 0 0 0 0 0 0 0 0 0 0 0 0 0 0 0 0 0 0 0 0 0 0 0 0 0 0 0 0
0 0 0 0 0 0 0 0 0 0 0 0 0 0 0 0 0 0 0 0 0 0 0 0 0 0 0 0 0 0 0 0 0 0 0 0 0 0
0 0 0 0 0 0 0 0 0 0 0 0 0 0 0 0 0 0 0 0 0 0 0 0 0 0 0 0 0 0 0 0 0 0 0 0 0 0
0 0 0 0 0 0 0 0 0 0 0 0 0 0 0 0 0 0 0 0 0 0 0 0 0 0 0 0 0 0 0 0 0 0 0 0 0 0
0 0 0 0 0 0 0 0 0 0 0 0 0 0 0 0 0 0 0 0 0 0 0 0 0 0 0 0 0 0 0 0 0 0 0 0 0 0
0 0 0 0 0 0 0 0 0 0 0 0 0 0 0 0 0 0 0 0 0 0 0 0 0 0 0 0 0 0 0 0 0 0 0 0 0 0
0 0 0 0 0 0 0 0 0 0 0 0 0 0 0 0 0 0 0 0 0 0 0 0 0 0 0 0 0 0 0 0 0 0 0 0 0 0
0 0 0 0 0 0 0 0 0 0 0 0 0 0 0 0 0 0 0 0 0 0 0 0 0 0 0 0 0 0 0 0 0 0 0 0 0 0
Wind_Speed
1 1 1 1 1 1 1 2 2 3 3 3 1 1 1 2 4 3 3 6 7 8 9 9 10 10 10 10 10 9 7 5 2 2 3 5 6 9
1 1 1 1 0 0 1 1 2 3 3 1 1 1 1 2 4 4 4 7 7 7 8 9 9 9 10 10 10 10 8 6 4 2 3 4 5 5
1 1 1 1 1 0 0 1 1 2 3 1 1 1 1 2 2 3 3 4 4 7 8 8 9 9 10 11 11 12 10 7 6 5 3 4 6 6
1 1 1 1 1 0 0 1 1 1 2 2 1 1 1 2 2 3 3 3 3 7 8 8 8 8 9 10 11 12 12 10 8 8 7 7 7 8
1 1 1 2 1 1 1 1 1 1 1 1 1 1 1 1 2 2 2 2 3 5 7 8 8 8 9 10 10 10 11 11 11 10 10 9 9 8
1 1 1 2 2 1 1 1 1 1 0 1 1 1 1 1 2 1 1 2 2 3 4 5 7 9 9 9 10 9 9 9 10 10 11 11 10 10
1 1 1 1 2 2 1 1 1 1 0 1 1 1 1 1 1 1 1 1 1 2 2 3 3 3 5 7 8 8 8 8 8 9 9 10 9 9
2 1 1 1 1 2 2 1 1 1 2 1 1 2 2 2 2 2 2 1 0 1 1 1 2 2 3 3 5 6 6 6 6 7 7 7 7 7
2 2 1 1 3 3 4 5 5 4 1 2 2 3 3 3 4 2 2 1 1 0 1 1 1 1 2 3 5 5 6 6 6 6 6 6 6 5
2 3 3 2 2 3 2 2 2 3 2 1 1 2 2 3 3 3 3 2 1 1 1 0 1 1 2 3 6 5 5 5 5 5 5 5 4 4
2 3 3 3 5 5 4 2 1 2 3 5 5 4 5 6 5 4 3 2 1 0 1 1 0 1 1 1 3 6 5 4 4 4 4 3 3 4
2 3 6 6 7 6 4 4 3 2 1 2 4 5 4 3 4 3 3 3 1 1 0 1 1 1 1 1 1 2 3 4 5 4 4 3 2 2
3 3 3 8 8 8 7 5 5 4 3 2 2 1 1 2 2 2 2 3 3 2 1 2 1 1 1 1 1 1 1 1 2 3 4 4 3 0
4 4 4 9 9 9 6 7 8 5 3 2 2 2 1 1 1 1 2 2 2 2 2 3 2 2 2 0 2 1 1 1 0 1 1 3 4 4
5 8 9 10 9 7 8 9 6 3 3 3 3 3 2 2 2 2 2 2 1 1 2 3 3 3 2 2 2 1 2 1 1 1 1 1 1 2
6 8 11 10 8 7 6 5 3 4 4 4 3 3 2 3 2 2 2 2 1 1 1 3 3 4 3 3 3 3 3 3 1 1 2 3 3 3
4 3 3 3 3 3 3 3 3 3 4 3 3 3 3 3 3 3 3 2 2 2 1 1 2 3 4 3 3 5 4 4 3 3 2 3 4 4
8 4 5 6 6 6 6 5 5 5 5 5 4 4 4 4 4 3 3 3 3 3 3 2 2 0 1 5 9 6 4 4 3 3 3 3 4 4
8 6 6 6 6 6 6 6 6 5 5 5 5 5 5 4 4 4 4 4 4 4 3 3 3 3 2 3 3 7 5 2 2 2 3 4 4 4
6 7 7 7 7 6 6 6 6 5 5 6 6 5 6 5 5 5 5 5 5 4 3 4 4 5 6 4 3 3 6 5 3 3 3 3 5 8
6 7 7 7 7 7 7 6 6 6 6 6 6 7 6 6 6 6 6 9 7 5 6 6 6 9 3 2 3 4 4 8 8 5 3 3 4 3
7 7 7 7 7 7 7 6 6 7 7 7 7 6 6 6 7 8 7 6 6 6 6 4 3 3 4 5 6 5 3 3 7 13 13 10 5 4
7 6 6 6 6 6 6 7 8 7 7 7 7 7 7 7 6 6 7 7 6 6 5 4 4 4 5 6 6 6 6 5 4 5 7 13 18 21
Wind_Direction
189 209 213 217 226 239 242 232 247 262 247 190 168 95 69 67 57 48 44 62 62 60 53 47 38 31 25 22 20 14 10 9 19 180 174 172 185 195
174 189 195 183 190 245 251 251 243 252 258 142 148 134 99 92 74 59 52 60 58 62 58 49 40 36 32 28 24 21 19 27 43 70 135 151 156 164
146 172 173 150 160 244 276 261 257 251 255 168 112 113 115 108 78 64 57 45 39 56 57 51 43 39 38 35 32 29 29 35 47 60 97 122 117 120
175 166 178 154 160 204 252 260 263 265 241 213 164 142 125 122 106 85 61 53 40 47 53 52 46 39 38 39 38 37 37 43 49 56 74 83 99 105
179 192 191 171 189 203 224 256 272 276 253 195 164 128 111 109 99 79 68 42 41 37 44 44 43 41 42 43 44 43 43 47 53 60 66 72 80 88
144 166 172 182 197 199 210 254 271 267 223 155 142 131 122 108 113 117 95 44 32 21 32 35 37 42 41 43 44 44 48 50 54 64 69 71 72 75
137 132 159 175 193 187 180 208 202 198 174 164 154 141 151 148 154 133 132 80 48 24 14 21 19 25 23 21 32 42 51 56 60 67 72 75 74 74
174 157 116 95 100 99 94 108 150 176 193 184 181 184 183 168 137 136 127 117 223 16 35 17 22 29 7 355 20 43 53 60 64 70 75 76 76 74
186 182 171 134 99 84 73 56 41 38 119 178 187 197 183 179 155 141 138 144 168 14 48 26 14 20 357 354 16 53 63 66 67 71 75 76 74 73
194 191 184 172 167 151 127 86 47 24 37 81 165 180 169 154 152 147 139 114 89 39 70 118 4 357 350 349 16 50 63 67 66 69 70 69 69 64
202 198 194 196 211 187 156 148 105 7 49 96 110 117 129 141 138 114 117 110 139 166 43 118 51 342 341 351 6 28 45 60 65 62 56 46 46 59
209 217 219 213 220 204 169 172 191 209 115 75 69 62 58 82 118 129 143 136 151 208 188 118 90 43 11 355 9 8 18 32 40 37 27 13 27 79
206 211 223 229 226 219 192 188 209 191 166 148 125 98 75 71 80 106 132 145 156 201 174 126 123 96 115 309 329 11 18 5 5 10 8 355 342 46
205 204 217 230 231 228 212 204 216 188 151 157 167 185 187 189 164 137 135 136 150 177 165 138 147 156 138 294 292 330 329 305 313 329 337 339 345 328
204 213 220 228 230 232 228 218 208 168 162 182 199 207 200 183 153 135 120 120 114 148 160 158 155 154 162 197 249 287 311 296 258 255 283 284 284 295
207 219 225 228 220 216 227 227 185 175 181 193 199 194 163 159 170 167 165 156 159 217 155 161 167 164 183 211 222 245 236 262 271 237 267 269 256 240
172 169 180 188 201 199 199 201 190 190 201 185 188 185 185 183 185 171 168 161 179 189 191 176 183 197 209 200 228 238 239 240 242 244 254 274 259 243
195 187 199 205 210 210 209 208 203 203 200 194 194 195 195 193 191 177 175 183 201 208 202 183 155 158 278 249 222 236 240 242 237 225 216 252 274 252
208 201 205 209 212 210 209 208 210 205 195 196 201 200 197 194 190 193 192 196 210 215 209 185 171 171 211 273 262 213 203 207 212 226 222 226 256 266
207 208 209 209 209 210 211 212 212 202 197 202 201 199 196 193 194 198 197 202 208 209 209 196 194 195 204 218 247 255 214 206 207 232 243 248 261 271
211 212 211 209 209 208 209 209 207 206 202 199 202 200 197 195 202 204 203 216 212 207 217 218 219 215 191 170 250 254 234 226 220 214 218 256 278 272
212 214 213 211 209 208 207 206 208 209 205 205 204 200 197 196 202 202 202 206 211 211 218 211 179 176 178 210 238 249 252 242 248 251 248 235 228 237
214 213 213 211 211 207 206 207 209 210 207 205 204 200 196 199 202 201 202 204 207 209 207 200 188 195 210 219 239 252 258 257 255 258 256 253 251 253